| time (UTC) | temp F | wind direction | speed MPH | gust MPH | rain 1hr in | rain 24hr in | rain mn in | humidity % | barometer mb |
| 20260901145028 | 67 | 278 | 6.0 | 17.0 | 0.00 | 0.00 | 0.00 | 63 | 1018.2 |
| 20260901144526 | 67 | 286 | 4.0 | 11.0 | 0.00 | 0.00 | 0.00 | 63 | 1018.2 |
| 20260901144025 | 68 | 297 | 6.0 | 13.0 | 0.00 | 0.00 | 0.00 | 63 | 1018.1 |
| 20260901143523 | 68 | 270 | 6.0 | 13.0 | 0.00 | 0.00 | 0.00 | 63 | 1018.2 |
| 20260901143021 | 68 | 276 | 5.0 | 10.0 | 0.00 | 0.00 | 0.00 | 63 | 1018.2 |
| 20260901142519 | 68 | 279 | 5.0 | 10.0 | 0.00 | 0.00 | 0.00 | 63 | 1018.1 |
| 20260901142049 | 68 | 279 | 5.0 | 13.0 | 0.00 | 0.00 | 0.00 | 63 | 1018.1 |
| 20260901142017 | 68 | 279 | 5.0 | 13.0 | 0.00 | 0.00 | 0.00 | 63 | 1018.1 |
| 20260901141535 | 68 | 285 | 6.0 | 13.0 | 0.00 | 0.07 | 0.00 | 63 | 1018.0 |
| 20260901141033 | 68 | 262 | 6.0 | 14.0 | 0.00 | 0.07 | 0.00 | 63 | 1018.1 |
| 20260901140532 | 68 | 271 | 6.0 | 14.0 | 0.00 | 0.07 | 0.00 | 63 | 1018.0 |
| 20260901140029 | 68 | 276 | 5.0 | 11.0 | 0.00 | 0.07 | 0.00 | 63 | 1018.0 |
| 20260901135527 | 68 | 284 | 7.0 | 15.0 | 0.00 | 0.07 | 0.00 | 63 | 1018.0 |
| 20260901135025 | 68 | 280 | 8.0 | 17.0 | 0.00 | 0.08 | 0.00 | 63 | 1018.0 |
| 20260901134523 | 68 | 277 | 5.0 | 11.0 | 0.00 | 0.08 | 0.00 | 63 | 1018.1 |
| 20260901134022 | 68 | 262 | 5.0 | 13.0 | 0.00 | 0.08 | 0.00 | 63 | 1018.0 |
| 20260901133521 | 68 | 273 | 8.0 | 17.0 | 0.00 | 0.08 | 0.00 | 63 | 1018.1 |
| 20260901133019 | 67 | 270 | 7.0 | 16.0 | 0.00 | 0.08 | 0.00 | 63 | 1018.1 |
| 20260901132516 | 67 | 280 | 7.0 | 14.0 | 0.00 | 0.08 | 0.00 | 63 | 1018.1 |
| 20260901132035 | 67 | 291 | 8.0 | 17.0 | 0.00 | 0.08 | 0.00 | 63 | 1018.1 |
| 20260901131533 | 67 | 278 | 6.0 | 14.0 | 0.00 | 0.08 | 0.00 | 63 | 1018.1 |
| 20260901131031 | 68 | 277 | 6.0 | 11.0 | 0.00 | 0.08 | 0.00 | 63 | 1017.9 |
| 20260901130529 | 68 | 277 | 7.0 | 15.0 | 0.00 | 0.08 | 0.00 | 63 | 1017.9 |
| 20260901130027 | 68 | 273 | 7.0 | 14.0 | 0.00 | 0.08 | 0.00 | 63 | 1018.0 |
| 20260901125525 | 68 | 282 | 8.0 | 18.0 | 0.00 | 0.08 | 0.00 | 63 | 1018.0 |
| 20260901125024 | 67 | 265 | 6.0 | 21.0 | 0.00 | 0.08 | 0.00 | 64 | 1018.0 |
| 20260901124521 | 67 | 285 | 9.0 | 17.0 | 0.00 | 0.08 | 0.00 | 63 | 1017.9 |
| 20260901124020 | 67 | 280 | 5.0 | 11.0 | 0.00 | 0.08 | 0.00 | 63 | 1017.9 |
| 20260901123518 | 67 | 278 | 6.0 | 13.0 | 0.00 | 0.08 | 0.00 | 63 | 1017.9 |
| 20260901123052 | 67 | 289 | 8.0 | 18.0 | 0.00 | 0.08 | 0.00 | 62 | 1017.9 |
| 20260901123016 | 67 | 289 | 8.0 | 18.0 | 0.00 | 0.08 | 0.00 | 62 | 1017.9 |
| 20260901122534 | 68 | 278 | 6.0 | 15.0 | 0.00 | 0.08 | 0.00 | 61 | 1017.9 |
| 20260901122032 | 68 | 282 | 7.0 | 13.0 | 0.00 | 0.08 | 0.00 | 61 | 1017.8 |
| 20260901121531 | 68 | 290 | 6.0 | 13.0 | 0.00 | 0.08 | 0.00 | 61 | 1017.7 |
| 20260901121029 | 68 | 291 | 7.0 | 15.0 | 0.00 | 0.08 | 0.00 | 61 | 1017.7 |
| 20260901120527 | 68 | 280 | 6.0 | 16.0 | 0.00 | 0.08 | 0.00 | 61 | 1017.7 |
| 20260901120025 | 68 | 277 | 7.0 | 16.0 | 0.00 | 0.08 | 0.00 | 61 | 1017.7 |
| 20260901115523 | 68 | 284 | 7.0 | 17.0 | 0.00 | 0.08 | 0.00 | 61 | 1017.8 |
| 20260901115022 | 68 | 274 | 7.0 | 14.0 | 0.00 | 0.08 | 0.00 | 61 | 1017.8 |
| 20260901114519 | 68 | 295 | 7.0 | 21.0 | 0.00 | 0.08 | 0.00 | 61 | 1017.8 |
| 20260901114049 | 68 | 277 | 6.0 | 22.0 | 0.00 | 0.08 | 0.00 | 61 | 1017.7 |
| 20260901114017 | 68 | 277 | 6.0 | 22.0 | 0.00 | 0.08 | 0.00 | 61 | 1017.7 |
| 20260901113515 | 68 | 276 | 5.0 | 13.0 | 0.00 | 0.08 | 0.00 | 61 | 1017.7 |
| 20260901113034 | 68 | 278 | 6.0 | 17.0 | 0.00 | 0.08 | 0.00 | 60 | 1017.6 |
| 20260901112532 | 69 | 279 | 11.0 | 22.0 | 0.00 | 0.08 | 0.00 | 59 | 1017.7 |
| 20260901112030 | 69 | 274 | 6.0 | 13.0 | 0.00 | 0.08 | 0.00 | 61 | 1017.7 |
| 20260901111528 | 69 | 285 | 6.0 | 14.0 | 0.00 | 0.08 | 0.00 | 61 | 1017.7 |
| 20260901111027 | 69 | 273 | 7.0 | 14.0 | 0.00 | 0.08 | 0.00 | 60 | 1017.7 |
| 20260901110525 | 69 | 287 | 8.0 | 15.0 | 0.00 | 0.08 | 0.00 | 59 | 1017.6 |
| 20260901110023 | 69 | 292 | 6.0 | 15.0 | 0.00 | 0.08 | 0.00 | 60 | 1017.6 |
| 20260901105521 | 69 | 281 | 7.0 | 14.0 | 0.00 | 0.08 | 0.00 | 60 | 1017.6 |
| 20260901105019 | 69 | 276 | 7.0 | 18.0 | 0.00 | 0.08 | 0.00 | 59 | 1017.5 |
| 20260901104517 | 69 | 265 | 7.0 | 14.0 | 0.00 | 0.08 | 0.00 | 60 | 1017.5 |
| 20260901104036 | 69 | 281 | 5.0 | 15.0 | 0.00 | 0.08 | 0.00 | 60 | 1017.5 |
| 20260901103534 | 69 | 277 | 7.0 | 14.0 | 0.00 | 0.08 | 0.00 | 60 | 1017.5 |
| 20260901103032 | 69 | 276 | 9.0 | 19.0 | 0.00 | 0.08 | 0.00 | 59 | 1017.5 |
| 20260901102530 | 70 | 281 | 9.0 | 21.0 | 0.00 | 0.08 | 0.00 | 58 | 1017.4 |
| 20260901102028 | 70 | 279 | 8.0 | 18.0 | 0.00 | 0.08 | 0.00 | 58 | 1017.3 |
| 20260901101526 | 70 | 280 | 9.0 | 19.0 | 0.00 | 0.08 | 0.00 | 58 | 1017.3 |
| 20260901101024 | 71 | 282 | 8.0 | 23.0 | 0.00 | 0.08 | 0.00 | 57 | 1017.2 |
| 20260901100522 | 71 | 273 | 10.0 | 19.0 | 0.00 | 0.08 | 0.00 | 58 | 1017.3 |
| 20260901100021 | 71 | 274 | 8.0 | 18.0 | 0.00 | 0.08 | 0.00 | 58 | 1017.3 |
| 20260901095518 | 71 | 307 | 9.0 | 18.0 | 0.00 | 0.08 | 0.00 | 58 | 1017.2 |
| 20260901095048 | 70 | 279 | 7.0 | 14.0 | 0.00 | 0.08 | 0.00 | 60 | 1017.2 |
| 20260901095017 | 70 | 279 | 7.0 | 14.0 | 0.00 | 0.08 | 0.00 | 60 | 1017.2 |
| 20260901094536 | 70 | 275 | 6.0 | 14.0 | 0.00 | 0.08 | 0.00 | 60 | 1017.1 |
| 20260901094033 | 70 | 267 | 7.0 | 15.0 | 0.00 | 0.08 | 0.00 | 60 | 1017.2 |
| 20260901093531 | 69 | 278 | 7.0 | 16.0 | 0.00 | 0.08 | 0.00 | 60 | 1017.1 |
| 20260901093030 | 69 | 282 | 8.0 | 17.0 | 0.00 | 0.08 | 0.00 | 59 | 1017.1 |
| 20260901092528 | 69 | 289 | 9.0 | 21.0 | 0.00 | 0.08 | 0.00 | 59 | 1017.1 |
| 20260901092026 | 69 | 273 | 9.0 | 23.0 | 0.00 | 0.08 | 0.00 | 59 | 1017.1 |
| 20260901091524 | 69 | 281 | 10.0 | 21.0 | 0.00 | 0.08 | 0.00 | 60 | 1017.0 |
| 20260901091022 | 69 | 287 | 10.0 | 21.0 | 0.00 | 0.08 | 0.00 | 62 | 1016.9 |
| 20260901090520 | 69 | 283 | 6.0 | 13.0 | 0.00 | 0.08 | 0.00 | 63 | 1016.8 |
| 20260901090049 | 69 | 283 | 7.0 | 15.0 | 0.00 | 0.08 | 0.00 | 64 | 1016.9 |
| 20260901090018 | 69 | 283 | 7.0 | 15.0 | 0.00 | 0.08 | 0.00 | 64 | 1016.9 |
| 20260901085535 | 69 | 269 | 8.0 | 21.0 | 0.00 | 0.08 | 0.00 | 65 | 1016.8 |
| 20260901085033 | 69 | 280 | 6.0 | 18.0 | 0.00 | 0.08 | 0.00 | 64 | 1016.8 |
| 20260901084531 | 69 | 276 | 8.0 | 16.0 | 0.00 | 0.08 | 0.00 | 65 | 1016.9 |
| 20260901084030 | 68 | 280 | 8.0 | 16.0 | 0.00 | 0.08 | 0.00 | 66 | 1016.8 |
| 20260901083528 | 68 | 289 | 8.0 | 16.0 | 0.00 | 0.08 | 0.00 | 66 | 1016.8 |
| 20260901083026 | 68 | 276 | 10.0 | 17.0 | 0.00 | 0.08 | 0.00 | 66 | 1016.8 |
| 20260901082524 | 68 | 290 | 7.0 | 15.0 | 0.00 | 0.08 | 0.00 | 68 | 1016.7 |
| 20260901082022 | 67 | 272 | 5.0 | 10.0 | 0.00 | 0.08 | 0.00 | 68 | 1016.7 |
| 20260901081520 | 67 | 293 | 7.0 | 16.0 | 0.00 | 0.08 | 0.00 | 66 | 1016.7 |
| 20260901081019 | 67 | 289 | 6.0 | 16.0 | 0.00 | 0.08 | 0.00 | 68 | 1016.6 |
| 20260901080516 | 67 | 291 | 5.0 | 11.0 | 0.00 | 0.08 | 0.00 | 68 | 1016.5 |
| 20260901080035 | 67 | 290 | 6.0 | 11.0 | 0.00 | 0.08 | 0.00 | 68 | 1016.6 |
| 20260901075533 | 67 | 284 | 5.0 | 11.0 | 0.00 | 0.08 | 0.00 | 68 | 1016.7 |
| 20260901075031 | 67 | 294 | 5.0 | 11.0 | 0.00 | 0.08 | 0.00 | 68 | 1016.7 |
| 20260901074529 | 67 | 287 | 6.0 | 13.0 | 0.00 | 0.08 | 0.00 | 68 | 1016.6 |
| 20260901074027 | 67 | 290 | 6.0 | 11.0 | 0.00 | 0.08 | 0.00 | 69 | 1016.6 |
| 20260901073525 | 66 | 291 | 5.0 | 13.0 | 0.00 | 0.08 | 0.00 | 69 | 1016.6 |
| 20260901073023 | 66 | 306 | 6.0 | 13.0 | 0.00 | 0.08 | 0.00 | 69 | 1016.5 |
| 20260901072522 | 66 | 281 | 5.0 | 10.0 | 0.00 | 0.08 | 0.00 | 69 | 1016.5 |
| 20260901072020 | 66 | 292 | 8.0 | 16.0 | 0.00 | 0.08 | 0.00 | 69 | 1016.4 |
| 20260901071518 | 65 | 282 | 5.0 | 10.0 | 0.00 | 0.08 | 0.00 | 71 | 1016.4 |
| 20260901071016 | 65 | 279 | 6.0 | 15.0 | 0.00 | 0.08 | 0.00 | 70 | 1016.3 |
| 20260901070534 | 65 | 291 | 8.0 | 17.0 | 0.00 | 0.08 | 0.00 | 70 | 1016.3 |
| 20260901070032 | 65 | 276 | 8.0 | 16.0 | 0.00 | 0.08 | 0.00 | 71 | 1016.4 |
| 20260901065544 | 65 | 287 | 8.0 | 18.0 | 0.00 | 0.08 | 0.00 | 71 | 1016.4 |
| 20260901065029 | 65 | 288 | 7.0 | 16.0 | 0.00 | 0.08 | 0.00 | 73 | 1016.2 |
| 20260901064527 | 65 | 283 | 7.0 | 13.0 | 0.00 | 0.08 | 0.00 | 73 | 1016.2 |
| 20260901064025 | 64 | 279 | 5.0 | 11.0 | 0.00 | 0.08 | 0.00 | 73 | 1016.2 |
| 20260901063523 | 64 | 287 | 7.0 | 15.0 | 0.00 | 0.08 | 0.00 | 73 | 1016.2 |
| 20260901063021 | 64 | 298 | 5.0 | 9.0 | 0.00 | 0.08 | 0.00 | 74 | 1016.2 |
| 20260901062519 | 64 | 282 | 5.0 | 13.0 | 0.00 | 0.08 | 0.00 | 75 | 1016.2 |
| 20260901062017 | 64 | 285 | 6.0 | 15.0 | 0.00 | 0.08 | 0.00 | 75 | 1016.2 |
| 20260901061516 | 63 | 289 | 5.0 | 11.0 | 0.00 | 0.08 | 0.00 | 76 | 1016.1 |
| 20260901061034 | 63 | 290 | 5.0 | 11.0 | 0.00 | 0.08 | 0.00 | 76 | 1016.0 |
| 20260901060532 | 63 | 284 | 5.0 | 13.0 | 0.00 | 0.08 | 0.00 | 77 | 1016.0 |
| 20260901060030 | 63 | 283 | 5.0 | 10.0 | 0.00 | 0.08 | 0.00 | 77 | 1016.0 |
| 20260901055528 | 63 | 279 | 5.0 | 11.0 | 0.00 | 0.08 | 0.00 | 77 | 1016.0 |
| 20260901055026 | 63 | 280 | 5.0 | 10.0 | 0.00 | 0.08 | 0.00 | 77 | 1015.9 |
| 20260901054524 | 63 | 287 | 5.0 | 13.0 | 0.00 | 0.08 | 0.00 | 77 | 1015.8 |
| 20260901054023 | 63 | 285 | 6.0 | 11.0 | 0.00 | 0.08 | 0.00 | 78 | 1015.9 |
| 20260901053521 | 63 | 281 | 7.0 | 22.0 | 0.00 | 0.08 | 0.00 | 79 | 1015.9 |
| 20260901053052 | 62 | 282 | 5.0 | 10.0 | 0.00 | 0.08 | 0.00 | 80 | 1015.8 |
| 20260901053019 | 62 | 282 | 5.0 | 10.0 | 0.00 | 0.08 | 0.00 | 80 | 1015.8 |
| 20260901052517 | 62 | 279 | 5.0 | 11.0 | 0.00 | 0.08 | 0.00 | 80 | 1015.8 |
| 20260901052035 | 62 | 280 | 5.0 | 11.0 | 0.00 | 0.08 | 0.00 | 80 | 1015.8 |
| 20260901051533 | 62 | 294 | 5.0 | 10.0 | 0.00 | 0.08 | 0.00 | 80 | 1015.7 |
| 20260901051032 | 62 | 274 | 4.0 | 8.0 | 0.00 | 0.08 | 0.00 | 80 | 1015.7 |
| 20260901050530 | 62 | 292 | 3.0 | 7.0 | 0.00 | 0.08 | 0.00 | 80 | 1015.6 |
| 20260901050028 | 62 | 295 | 4.0 | 8.0 | 0.00 | 0.08 | 0.00 | 80 | 1015.6 |
| 20260901045525 | 62 | 290 | 4.0 | 8.0 | 0.00 | 0.08 | 0.00 | 80 | 1015.5 |
| 20260901045024 | 62 | 288 | 4.0 | 8.0 | 0.00 | 0.08 | 0.00 | 80 | 1015.5 |
| 20260901044522 | 62 | 286 | 4.0 | 7.0 | 0.00 | 0.08 | 0.00 | 80 | 1015.4 |
| 20260901044020 | 62 | 279 | 4.0 | 8.0 | 0.00 | 0.08 | 0.00 | 80 | 1015.4 |
| 20260901043518 | 62 | 271 | 4.0 | 7.0 | 0.00 | 0.08 | 0.00 | 80 | 1015.3 |
| 20260901043047 | 62 | 284 | 5.0 | 11.0 | 0.00 | 0.08 | 0.00 | 80 | 1015.3 |
| 20260901043016 | 62 | 284 | 5.0 | 11.0 | 0.00 | 0.08 | 0.00 | 80 | 1015.3 |
| 20260901042534 | 62 | 285 | 6.0 | 11.0 | 0.00 | 0.08 | 0.00 | 80 | 1015.2 |
| 20260901042033 | 62 | 282 | 4.0 | 8.0 | 0.00 | 0.08 | 0.00 | 80 | 1015.0 |
| 20260901041531 | 62 | 289 | 4.0 | 10.0 | 0.00 | 0.08 | 0.00 | 80 | 1015.0 |
| 20260901041029 | 62 | 288 | 4.0 | 8.0 | 0.00 | 0.08 | 0.00 | 80 | 1014.9 |
| 20260901040527 | 62 | 287 | 5.0 | 10.0 | 0.00 | 0.08 | 0.00 | 80 | 1014.8 |
| 20260901040025 | 62 | 293 | 5.0 | 9.0 | 0.00 | 0.08 | 0.00 | 80 | 1014.8 |
| 20260901035523 | 62 | 276 | 5.0 | 11.0 | 0.00 | 0.08 | 0.00 | 80 | 1014.8 |
| 20260901035021 | 62 | 290 | 5.0 | 11.0 | 0.00 | 0.08 | 0.00 | 81 | 1014.9 |
| 20260901034519 | 62 | 280 | 5.0 | 10.0 | 0.00 | 0.08 | 0.00 | 81 | 1014.9 |
| 20260901034048 | 62 | 283 | 4.0 | 8.0 | 0.00 | 0.08 | 0.00 | 81 | 1014.8 |
| 20260901034017 | 62 | 283 | 4.0 | 8.0 | 0.00 | 0.08 | 0.00 | 81 | 1014.8 |
| 20260901033535 | 62 | 282 | 4.0 | 9.0 | 0.00 | 0.08 | 0.00 | 81 | 1014.8 |
| 20260901033033 | 62 | 286 | 3.0 | 6.0 | 0.00 | 0.08 | 0.00 | 81 | 1014.9 |
| 20260901032531 | 62 | 284 | 4.0 | 9.0 | 0.00 | 0.08 | 0.00 | 82 | 1014.9 |
| 20260901032030 | 62 | 292 | 5.0 | 9.0 | 0.00 | 0.08 | 0.00 | 82 | 1014.9 |
| 20260901031527 | 62 | 285 | 5.0 | 13.0 | 0.00 | 0.08 | 0.00 | 83 | 1014.9 |
| 20260901031026 | 62 | 286 | 4.0 | 11.0 | 0.00 | 0.08 | 0.00 | 83 | 1014.9 |
| 20260901030524 | 62 | 277 | 2.0 | 6.0 | 0.00 | 0.08 | 0.00 | 84 | 1014.9 |
| 20260901030022 | 62 | 282 | 3.0 | 8.0 | 0.00 | 0.08 | 0.00 | 84 | 1015.0 |
| 20260901025520 | 62 | 282 | 2.0 | 4.0 | 0.00 | 0.08 | 0.00 | 84 | 1014.8 |
| 20260901025050 | 62 | 268 | 2.0 | 4.0 | 0.00 | 0.08 | 0.00 | 84 | 1014.9 |
| 20260901025018 | 62 | 268 | 2.0 | 4.0 | 0.00 | 0.08 | 0.00 | 84 | 1014.9 |
| 20260901024516 | 62 | 273 | 2.0 | 4.0 | 0.00 | 0.08 | 0.00 | 84 | 1014.9 |
| 20260901024035 | 62 | 263 | 1.0 | 4.0 | 0.00 | 0.08 | 0.00 | 84 | 1014.9 |
| 20260901023533 | 62 | 241 | 1.0 | 3.0 | 0.00 | 0.08 | 0.00 | 84 | 1015.0 |
| 20260901023031 | 62 | 251 | 1.0 | 7.0 | 0.00 | 0.08 | 0.00 | 84 | 1014.9 |
| 20260901022529 | 62 | 255 | 1.0 | 6.0 | 0.00 | 0.08 | 0.00 | 84 | 1014.9 |
| 20260901022027 | 62 | 261 | 0.0 | 3.0 | 0.00 | 0.08 | 0.00 | 84 | 1014.7 |
| 20260901021525 | 62 | 260 | 1.0 | 3.0 | 0.00 | 0.08 | 0.00 | 84 | 1014.7 |
| 20260901021023 | 62 | 0.0 | 0.0 | 0.00 | 0.08 | 0.00 | 84 | 1014.7 | |
| 20260901020521 | 62 | 264 | 0.0 | 2.0 | 0.00 | 0.08 | 0.00 | 84 | 1014.7 |
| 20260901020019 | 62 | 261 | 0.0 | 3.0 | 0.00 | 0.08 | 0.00 | 84 | 1014.7 |
| 20260901015517 | 62 | 0.0 | 0.0 | 0.00 | 0.08 | 0.00 | 84 | 1014.7 | |
| 20260901015047 | 62 | 0.0 | 0.0 | 0.00 | 0.08 | 0.00 | 84 | 1014.7 | |
| 20260901015015 | 62 | 0.0 | 0.0 | 0.00 | 0.08 | 0.00 | 84 | 1014.7 | |
| 20260901014534 | 62 | 238 | 0.0 | 1.0 | 0.00 | 0.08 | 0.00 | 84 | 1014.8 |
| 20260901014032 | 62 | 253 | 0.0 | 2.0 | 0.00 | 0.08 | 0.00 | 84 | 1015.0 |
| 20260901013530 | 62 | 260 | 0.0 | 2.0 | 0.00 | 0.08 | 0.00 | 84 | 1014.9 |
| 20260901013029 | 62 | 223 | 0.0 | 4.0 | 0.00 | 0.08 | 0.00 | 84 | 1014.8 |
| 20260901012527 | 62 | 231 | 1.0 | 4.0 | 0.00 | 0.08 | 0.00 | 84 | 1014.8 |
| 20260901012025 | 62 | 246 | 0.0 | 2.0 | 0.00 | 0.08 | 0.00 | 84 | 1014.8 |
| 20260901011523 | 62 | 229 | 0.0 | 1.0 | 0.00 | 0.08 | 0.00 | 84 | 1014.8 |
| 20260901011021 | 62 | 231 | 1.0 | 3.0 | 0.00 | 0.08 | 0.00 | 84 | 1014.8 |
| 20260901010519 | 62 | 230 | 0.0 | 1.0 | 0.00 | 0.08 | 0.00 | 84 | 1014.7 |
| 20260901010049 | 62 | 276 | 1.0 | 4.0 | 0.00 | 0.08 | 0.00 | 83 | 1014.8 |
| 20260901010017 | 62 | 276 | 1.0 | 4.0 | 0.00 | 0.08 | 0.00 | 83 | 1014.8 |
| 20260901005535 | 62 | 285 | 1.0 | 4.0 | 0.00 | 0.08 | 0.00 | 83 | 1014.9 |
| 20260901005033 | 62 | 282 | 1.0 | 4.0 | 0.00 | 0.08 | 0.00 | 83 | 1014.9 |
| 20260901004531 | 62 | 259 | 1.0 | 2.0 | 0.00 | 0.08 | 0.00 | 83 | 1014.9 |
| 20260901004030 | 62 | 290 | 0.0 | 1.0 | 0.00 | 0.08 | 0.00 | 83 | 1014.9 |
| 20260901003528 | 62 | 0.0 | 0.0 | 0.00 | 0.08 | 0.00 | 83 | 1015.0 | |
| 20260901003059 | 62 | 0.0 | 0.0 | 0.00 | 0.08 | 0.00 | 83 | 1014.8 | |
| 20260901003026 | 62 | 0.0 | 0.0 | 0.00 | 0.08 | 0.00 | 83 | 1014.8 | |
| 20260901002524 | 62 | 0.0 | 0.0 | 0.00 | 0.08 | 0.00 | 83 | 1014.8 | |
| 20260901002022 | 62 | 0.0 | 0.0 | 0.00 | 0.08 | 0.00 | 83 | 1014.8 | |
| 20260901001520 | 62 | 0.0 | 0.0 | 0.00 | 0.08 | 0.00 | 82 | 1015.0 | |
| 20260901001050 | 62 | 0.0 | 0.0 | 0.00 | 0.08 | 0.00 | 82 | 1014.9 | |
| 20260901001018 | 62 | 0.0 | 0.0 | 0.00 | 0.08 | 0.00 | 82 | 1014.9 | |
| 20260901000516 | 62 | 0.0 | 0.0 | 0.00 | 0.08 | 0.00 | 82 | 1014.9 | |
| 20260901000035 | 62 | 0.0 | 0.0 | 0.00 | 0.08 | 0.00 | 82 | 1015.0 | |
| 20260831235533 | 62 | 198 | 0.0 | 1.0 | 0.00 | 0.08 | 0.00 | 82 | 1015.0 |
| 20260831235031 | 62 | 0.0 | 0.0 | 0.00 | 0.08 | 0.00 | 82 | 1015.1 | |
| 20260831234529 | 62 | 223 | 0.0 | 1.0 | 0.00 | 0.08 | 0.00 | 82 | 1015.2 |
| 20260831234027 | 62 | 0.0 | 0.0 | 0.00 | 0.08 | 0.00 | 82 | 1015.3 | |
| 20260831233525 | 62 | 0.0 | 0.0 | 0.00 | 0.08 | 0.00 | 81 | 1015.4 | |
| 20260831233023 | 62 | 0.0 | 0.0 | 0.00 | 0.08 | 0.00 | 81 | 1015.4 | |
| 20260831232521 | 62 | 0.0 | 0.0 | 0.00 | 0.08 | 0.00 | 81 | 1015.5 | |
| 20260831232019 | 62 | 0.0 | 0.0 | 0.00 | 0.08 | 0.00 | 81 | 1015.4 | |
| 20260831231518 | 62 | 0.0 | 0.0 | 0.00 | 0.08 | 0.00 | 81 | 1015.4 | |
| 20260831231049 | 62 | 0.0 | 0.0 | 0.00 | 0.08 | 0.00 | 81 | 1015.4 | |
| 20260831231016 | 62 | 0.0 | 0.0 | 0.00 | 0.08 | 0.00 | 81 | 1015.4 | |
| 20260831230534 | 62 | 0.0 | 0.0 | 0.00 | 0.08 | 0.00 | 81 | 1015.3 | |
| 20260831230032 | 62 | 150 | 0.0 | 1.0 | 0.00 | 0.08 | 0.00 | 81 | 1015.3 |
| 20260831225530 | 62 | 150 | 0.0 | 1.0 | 0.00 | 0.08 | 0.00 | 81 | 1015.3 |
| 20260831225028 | 63 | 152 | 0.0 | 2.0 | 0.00 | 0.08 | 0.00 | 81 | 1015.3 |
| 20260831224527 | 63 | 0.0 | 0.0 | 0.00 | 0.08 | 0.00 | 81 | 1015.4 | |
| 20260831224025 | 63 | 0.0 | 0.0 | 0.00 | 0.08 | 0.00 | 81 | 1015.4 | |
| 20260831223523 | 63 | 0.0 | 0.0 | 0.00 | 0.08 | 0.00 | 81 | 1015.4 | |
| 20260831223021 | 63 | 0.0 | 0.0 | 0.00 | 0.08 | 0.00 | 81 | 1015.6 | |
| 20260831222519 | 63 | 0.0 | 0.0 | 0.00 | 0.08 | 0.00 | 81 | 1015.7 | |
| 20260831222049 | 63 | 0.0 | 0.0 | 0.00 | 0.08 | 0.00 | 81 | 1015.6 | |
| 20260831222017 | 63 | 0.0 | 0.0 | 0.00 | 0.08 | 0.00 | 81 | 1015.6 | |
| 20260831221535 | 63 | 0.0 | 0.0 | 0.00 | 0.08 | 0.00 | 81 | 1015.5 | |
| 20260831221033 | 63 | 0.0 | 0.0 | 0.00 | 0.08 | 0.00 | 81 | 1015.4 | |
| 20260831220532 | 64 | 0.0 | 0.0 | 0.00 | 0.08 | 0.00 | 81 | 1015.5 | |
| 20260831220030 | 64 | 0.0 | 0.0 | 0.00 | 0.08 | 0.08 | 80 | 1015.4 | |
| 20260831215528 | 64 | 0.0 | 0.0 | 0.00 | 0.08 | 0.08 | 80 | 1015.3 | |
| 20260831215026 | 64 | 0.0 | 0.0 | 0.00 | 0.08 | 0.08 | 80 | 1015.2 | |
| 20260831214524 | 64 | 0.0 | 0.0 | 0.00 | 0.08 | 0.08 | 80 | 1015.4 | |
| 20260831214022 | 64 | 0.0 | 0.0 | 0.00 | 0.08 | 0.08 | 80 | 1015.4 | |
| 20260831213522 | 64 | 0.0 | 0.0 | 0.00 | 0.08 | 0.08 | 80 | 1015.4 | |
| 20260831213018 | 64 | 0.0 | 0.0 | 0.00 | 0.08 | 0.08 | 80 | 1015.4 | |
| 20260831212517 | 64 | 0.0 | 0.0 | 0.00 | 0.08 | 0.08 | 80 | 1015.6 | |
| 20260831212035 | 65 | 0.0 | 0.0 | 0.00 | 0.08 | 0.08 | 80 | 1015.5 | |
| 20260831211533 | 65 | 0.0 | 0.0 | 0.00 | 0.08 | 0.08 | 80 | 1015.4 | |
| 20260831211031 | 65 | 0.0 | 0.0 | 0.00 | 0.08 | 0.08 | 80 | 1015.4 | |
| 20260831210529 | 65 | 0.0 | 0.0 | 0.00 | 0.08 | 0.08 | 80 | 1015.3 | |
| 20260831210027 | 65 | 0.0 | 0.0 | 0.00 | 0.08 | 0.08 | 80 | 1015.4 | |
| 20260831205526 | 65 | 0.0 | 0.0 | 0.00 | 0.08 | 0.08 | 80 | 1015.4 | |
| 20260831205024 | 65 | 0.0 | 0.0 | 0.00 | 0.08 | 0.08 | 80 | 1015.4 | |
| 20260831204522 | 65 | 0.0 | 0.0 | 0.00 | 0.08 | 0.08 | 80 | 1015.4 | |
| 20260831204020 | 66 | 0.0 | 0.0 | 0.00 | 0.08 | 0.08 | 80 | 1015.4 | |
| 20260831203518 | 66 | 0.0 | 0.0 | 0.00 | 0.08 | 0.08 | 80 | 1015.3 | |
| 20260831203047 | 66 | 0.0 | 0.0 | 0.00 | 0.08 | 0.08 | 80 | 1015.3 | |
| 20260831203016 | 66 | 0.0 | 0.0 | 0.00 | 0.08 | 0.08 | 80 | 1015.3 | |
| 20260831202534 | 66 | 0.0 | 0.0 | 0.00 | 0.08 | 0.08 | 80 | 1015.4 | |
| 20260831202032 | 66 | 0.0 | 0.0 | 0.00 | 0.08 | 0.08 | 80 | 1015.4 | |
| 20260831201530 | 66 | 104 | 0.0 | 2.0 | 0.00 | 0.08 | 0.08 | 80 | 1015.3 |
| 20260831201029 | 66 | 111 | 0.0 | 2.0 | 0.00 | 0.08 | 0.08 | 79 | 1015.4 |
| 20260831200527 | 66 | 0.0 | 0.0 | 0.00 | 0.08 | 0.08 | 79 | 1015.5 | |
| 20260831200025 | 66 | 0.0 | 0.0 | 0.00 | 0.08 | 0.08 | 80 | 1015.4 | |
| 20260831195523 | 67 | 0.0 | 0.0 | 0.00 | 0.08 | 0.08 | 80 | 1015.5 | |
| 20260831195021 | 67 | 0.0 | 0.0 | 0.00 | 0.08 | 0.08 | 80 | 1015.6 | |
| 20260831194520 | 67 | 0.0 | 0.0 | 0.00 | 0.08 | 0.08 | 79 | 1015.5 | |
| 20260831194017 | 67 | 0.0 | 0.0 | 0.00 | 0.08 | 0.08 | 79 | 1015.4 | |
| 20260831193535 | 67 | 0.0 | 0.0 | 0.00 | 0.08 | 0.08 | 79 | 1015.5 | |
| 20260831193034 | 67 | 0.0 | 0.0 | 0.00 | 0.08 | 0.08 | 79 | 1015.6 | |
| 20260831192532 | 67 | 0.0 | 0.0 | 0.00 | 0.08 | 0.08 | 79 | 1015.6 | |
| 20260831192030 | 67 | 0.0 | 0.0 | 0.00 | 0.08 | 0.08 | 79 | 1015.6 | |
| 20260831191528 | 67 | 0.0 | 0.0 | 0.00 | 0.08 | 0.08 | 79 | 1015.7 | |
| 20260831191026 | 67 | 0.0 | 0.0 | 0.00 | 0.08 | 0.08 | 79 | 1015.7 | |
| 20260831190524 | 67 | 0.0 | 0.0 | 0.00 | 0.08 | 0.08 | 79 | 1015.6 | |
| 20260831190022 | 67 | 0.0 | 0.0 | 0.00 | 0.08 | 0.08 | 79 | 1015.7 | |
| 20260831185520 | 67 | 0.0 | 0.0 | 0.00 | 0.08 | 0.08 | 78 | 1015.6 | |
| 20260831185018 | 68 | 0.0 | 0.0 | 0.00 | 0.08 | 0.08 | 78 | 1015.7 | |
| 20260831184517 | 68 | 0.0 | 0.0 | 0.00 | 0.08 | 0.08 | 78 | 1015.7 | |
| 20260831184035 | 68 | 0.0 | 0.0 | 0.00 | 0.08 | 0.08 | 78 | 1015.7 | |
| 20260831183533 | 68 | 0.0 | 0.0 | 0.00 | 0.08 | 0.08 | 78 | 1015.6 | |
| 20260831183031 | 68 | 0.0 | 0.0 | 0.00 | 0.08 | 0.08 | 78 | 1015.7 | |
| 20260831182530 | 68 | 0.0 | 0.0 | 0.00 | 0.08 | 0.08 | 78 | 1015.7 | |
| 20260831182028 | 68 | 184 | 0.0 | 2.0 | 0.00 | 0.08 | 0.08 | 78 | 1015.7 |
| 20260831181525 | 68 | 0.0 | 0.0 | 0.00 | 0.08 | 0.08 | 78 | 1015.6 | |
| 20260831181024 | 68 | 0.0 | 0.0 | 0.00 | 0.08 | 0.08 | 78 | 1015.5 | |
| 20260831180522 | 68 | 193 | 0.0 | 3.0 | 0.00 | 0.08 | 0.08 | 78 | 1015.4 |
| 20260831180020 | 68 | 205 | 0.0 | 4.0 | 0.00 | 0.08 | 0.08 | 77 | 1015.2 |
| 20260831175518 | 69 | 0.0 | 0.0 | 0.00 | 0.08 | 0.08 | 77 | 1015.0 | |
| 20260831175017 | 69 | 0.0 | 0.0 | 0.00 | 0.08 | 0.08 | 77 | 1015.0 | |
| 20260831174535 | 69 | 192 | 0.0 | 2.0 | 0.00 | 0.08 | 0.08 | 77 | 1014.8 |
| 20260831174033 | 69 | 181 | 0.0 | 2.0 | 0.00 | 0.08 | 0.08 | 77 | 1014.8 |
| 20260831173531 | 69 | 195 | 0.0 | 2.0 | 0.00 | 0.08 | 0.08 | 77 | 1015.0 |
| 20260831173029 | 69 | 0.0 | 0.0 | 0.00 | 0.08 | 0.08 | 77 | 1014.9 | |
| 20260831172527 | 69 | 0.0 | 0.0 | 0.00 | 0.08 | 0.08 | 77 | 1014.9 | |
| 20260831172059 | 69 | 194 | 0.0 | 3.0 | 0.00 | 0.08 | 0.08 | 77 | 1014.9 |
| 20260831172025 | 69 | 194 | 0.0 | 3.0 | 0.00 | 0.08 | 0.08 | 77 | 1014.9 |
| 20260831171523 | 69 | 176 | 1.0 | 4.0 | 0.00 | 0.08 | 0.08 | 77 | 1014.7 |
| 20260831171021 | 69 | 193 | 0.0 | 2.0 | 0.00 | 0.08 | 0.08 | 77 | 1014.8 |
| 20260831170520 | 69 | 0.0 | 0.0 | 0.00 | 0.08 | 0.08 | 77 | 1014.7 | |
| 20260831170018 | 69 | 226 | 0.0 | 2.0 | 0.00 | 0.08 | 0.08 | 77 | 1014.8 |
| 20260831165516 | 69 | 0.0 | 0.0 | 0.00 | 0.08 | 0.08 | 77 | 1014.7 | |
| 20260831165034 | 69 | 0.0 | 0.0 | 0.00 | 0.08 | 0.08 | 77 | 1014.8 | |
| 20260831164532 | 69 | 0.0 | 0.0 | 0.00 | 0.08 | 0.08 | 76 | 1014.6 | |
| 20260831164030 | 69 | 0.0 | 0.0 | 0.00 | 0.08 | 0.08 | 76 | 1014.4 | |
| 20260831163529 | 69 | 0.0 | 0.0 | 0.00 | 0.08 | 0.08 | 76 | 1014.6 | |
| 20260831163027 | 69 | 204 | 0.0 | 1.0 | 0.00 | 0.08 | 0.08 | 76 | 1014.5 |
| 20260831162525 | 69 | 0.0 | 0.0 | 0.00 | 0.08 | 0.08 | 76 | 1014.5 | |
| 20260831162023 | 69 | 0.0 | 0.0 | 0.00 | 0.08 | 0.08 | 75 | 1014.5 | |
| 20260831161522 | 70 | 0.0 | 0.0 | 0.00 | 0.08 | 0.08 | 75 | 1014.5 | |
| 20260831161054 | 70 | 0.0 | 0.0 | 0.00 | 0.08 | 0.08 | 75 | 1014.4 | |
| 20260831161019 | 70 | 0.0 | 0.0 | 0.00 | 0.08 | 0.08 | 75 | 1014.4 | |
| 20260831160517 | 70 | 0.0 | 0.0 | 0.00 | 0.08 | 0.08 | 75 | 1014.5 | |
| 20260831160035 | 70 | 0.0 | 0.0 | 0.00 | 0.08 | 0.08 | 75 | 1014.5 | |
| 20260831155534 | 70 | 0.0 | 0.0 | 0.00 | 0.08 | 0.08 | 75 | 1014.6 | |
| 20260831155032 | 70 | 0.0 | 0.0 | 0.00 | 0.08 | 0.08 | 75 | 1014.7 | |
| 20260831154530 | 70 | 0.0 | 0.0 | 0.00 | 0.08 | 0.08 | 75 | 1014.6 | |
| 20260831154028 | 70 | 301 | 0.0 | 2.0 | 0.00 | 0.08 | 0.08 | 75 | 1014.6 |
| 20260831153526 | 70 | 0.0 | 0.0 | 0.00 | 0.08 | 0.08 | 74 | 1014.6 | |
| 20260831153024 | 70 | 349 | 0.0 | 1.0 | 0.00 | 0.08 | 0.08 | 74 | 1014.6 |
| 20260831152522 | 70 | 323 | 0.0 | 2.0 | 0.00 | 0.08 | 0.08 | 74 | 1014.7 |
| 20260831152021 | 70 | 0.0 | 0.0 | 0.00 | 0.08 | 0.08 | 74 | 1014.6 | |
| 20260831151519 | 70 | 0.0 | 0.0 | 0.07 | 0.08 | 0.08 | 74 | 1014.7 | |
| 20260831151100 | 70 | 350 | 1.0 | 2.0 | 0.07 | 0.08 | 0.08 | 74 | 1014.8 |
| 20260831151017 | 70 | 350 | 1.0 | 2.0 | 0.07 | 0.08 | 0.08 | 74 | 1014.8 |
| 20260831150535 | 70 | 347 | 0.0 | 2.0 | 0.07 | 0.08 | 0.08 | 74 | 1014.8 |
| 20260831150107 | 70 | 353 | 0.0 | 1.0 | 0.07 | 0.08 | 0.08 | 75 | 1014.7 |
| 20260831150033 | 70 | 353 | 0.0 | 1.0 | 0.07 | 0.08 | 0.08 | 75 | 1014.7 |
| 20260831145531 | 70 | 343 | 0.0 | 3.0 | 0.07 | 0.08 | 0.08 | 75 | 1014.7 |